FENGYUN 1C DEB, 35210

Orbit data source: Space-Track

FENGYUN 1C DEB, 35210 is space debris in SSO originally from a launch on Mon, 10 May 1999 UTC launched from the Taiyaun Space Center, China (TSC). Fengyun 1C debris stems from the Chinese weather satellite Fengyun-1C, which was intentionally destroyed by a Chinese anti-satellite missile in 2007. This event dramatically increased the amount of space debris, with thousands of trackable fragments posing hazards to satellites and human spaceflight. The Fengyun 1C debris cloud has become a focal point in discussions about space sustainability and the need for international regulations to prevent the creation of new debris.

Loading next visibility...
Identifier
35210, 1999-025DPS
Orbit
SSO
Country
Flag of CNCN / PRC
Related business
Manufacturer
Unknown
Mission
Spacecraft
Bus & Motor
Unknown
Mass
Unknown
Launch date (UTC)
1999-05-10 (27 years ago)
Launch vehicle
Unknown
Launch site
Taiyaun Space Center, China (TSC)
Object type
Payload
Rocket body
Debris
Shape & HBR
Unknown shape, 0.1 m
Radar Cross Section
Small (<0.1 m²)

Expand to show TLE details & history
Last TLE update: 1 day ago

TLE from 1 day ago
0 FENGYUN 1C DEB
1 35210U 99025DPS 25352.50474920  .00005613  00000-0  20107-2 0  9991
2 35210  99.0985 356.5960 0049407 222.1660 289.6500 14.33704847902057
Epoch: 2025-12-18T12:06Z
TLE epoch observation values (Epoch: 2025-12-18T12:06:50.330Z)
Latitude
28.36962°
Longitude
-87.5383°
Altitude
771.13 km
Speed
7.477 km/s
True Right ascension
12h 06m 07s
True Declination
28° 13' 35"
Sunlit
Object was in daylight at epoch
Visualization orbit readout
Latitude
Unknown
Longitude
Unknown
Altitude
Unknown
Speed
Unknown
Apparent Right ascension
Unknown
Apparent Declination
Unknown
Sunlit
N/A
Visualization observer readout
Local Sidereal Time
14:01:39
Azimuth
Unknown
Elevation
Unknown
Doppler factor
Unknown
Orbital elements
Apogee altitude
811.882 km
Perigee altitude
741.184 km
Semi-major axis
7,154.67 km
Eccentricity
0.00494
Inclination
99.0985°
RAAN
356.596°
Arg. of periapsis
222.166°
True anomaly
289.11571°
Mean anomaly
289.65°
Eccentric anomaly
289.38296°
Mean motion
3.5864 °/min
Orbital period
100.38 mins
BSTAR
0.0020107
Loading maneuver chart data...
Computing Atmospheric mass density...

Documentation

Showing up to 5 results
|